[[{"header":{"parameterUnit":"m.s-1","parameterCategory":1,"la1":30.2991,"la2":30.254,"lo1":-89.0895,"lo2":-89.0444,"dy":0.0017,"dx":0.0017,"nx":28,"ny":28,"refTime":"2025-06-21T09:00:00:Z","depth":0,"parameterNumber":2,"parameterNumberName":"U-component_of_WINDS"},"data":[0,0,0,0,0,0,0,0,0,0,0,0,0,0,0,0,0,0,0,0,0,0,0,0,0,0,0,0,0,0,0,0,0,0,0,0,0,0,0,0,0,0,0,0,0,0,0,0,0,0,0,0,0,0,0,0,0,0,1.9543,1.9543,0,1.9597,1.9598,1.9599,1.9547,1.9545,1.9543,1.9541,1.9596,1.9599,1.9602,0,0,0,0,0,0,0,0,0,0,0,0,0,1.9391,1.9394,1.9543,1.9543,1.9544,1.9597,1.9598,1.9599,1.9548,1.9545,1.9543,1.954,1.9595,1.9599,1.9603,0,0,0,0,0,0,0,0,0,0,0,0,0,1.9453,1.9395,1.9543,1.9525,1.9524,1.9597,1.9598,1.9599,1.9548,1.9545,1.9542,1.9539,1.9593,1.9598,1.9603,1.9696,0,0,1.9619,1.9621,0,0,0,0,0,0,0,0,1.9449,1.9458,1.9527,1.9526,1.9525,1.9562,1.9565,1.9632,1.9549,1.9539,1.9541,1.9537,1.9587,1.9592,1.9609,1.9699,1.9701,1.9619,1.9622,1.9624,1.9626,0,0,0,0,0,0,0,1.9445,1.9456,1.9564,1.9528,1.9527,1.9513,1.9519,1.9577,1.958,1.9539,1.9536,1.9543,1.9586,1.9605,1.961,1.9702,1.9619,1.9624,1.9627,1.9629,1.9867,1.987,0,0,0,0,0,0,1.9443,1.9452,1.9562,1.9566,1.9479,1.9519,1.9525,1.9554,1.9579,1.958,1.9546,1.9541,1.9598,1.9605,1.9612,1.972,1.9624,1.9629,1.9632,1.9864,1.9868,1.9872,0,0,0,0,0,0,1.944,1.9453,1.956,1.9508,1.9521,1.9525,1.9557,1.9556,1.9575,1.9584,1.9583,1.9564,1.9595,1.9605,1.9675,1.9721,1.9631,1.9636,1.986,1.9865,1.987,1.9939,0,0,0,0,0,0,1.9436,1.9453,1.9489,1.9509,1.9524,1.9623,1.956,1.956,1.9584,1.9578,1.9601,1.9602,1.9594,1.9668,1.968,1.9727,1.964,1.9856,1.9862,1.9868,1.9932,1.9945,1.9957,0,0,0,0,0,1.9431,1.9506,1.9491,1.9504,1.9569,1.9626,1.9634,1.9624,1.9588,1.9623,1.9629,1.9601,1.9715,1.9675,1.9689,1.9738,1.9853,1.9861,1.9868,1.9927,1.9943,1.9956,0,0,0,0,0,0,1.9491,1.9509,1.9492,1.9576,1.96,1.9617,1.9662,1.9641,1.9675,1.9668,1.9653,1.9659,1.9732,1.9742,1.9698,1.9827,1.9778,1.9788,1.9818,1.9833,1.9845,1.984,1.9644,0,0,0,0,0,1.9514,1.956,1.9573,1.9646,1.9659,1.9659,1.9683,1.9673,1.9696,1.9706,1.9717,1.974,1.9781,1.9808,1.9846,1.9934,1.9937,1.9974,1.9986,1.9996,2.0005,2.0049,2.0065,1.9896,1.9896,1.9896,0,0,1.9562,1.9578,1.9607,1.9658,1.9675,1.9722,1.9667,1.9719,1.9753,1.9714,1.978,1.9789,1.9814,1.9893,1.9928,1.9903,2.0052,2.0006,2.0013,2.0017,2.0058,2.0074,2.0088,1.9901,1.99,1.9899,0,0,1.9673,1.969,1.9752,1.977,1.9797,1.9796,1.9811,1.9831,1.9835,1.9901,1.9872,1.9912,1.9983,2.0002,2.002,2.0137,2.0112,2.015,2.0212,2.0256,2.0269,2.0281,2.032,2.0334,2.0159,2.0159,2.0159,0,1.9729,1.9798,1.9786,1.984,1.9862,1.9829,1.989,1.9908,1.9946,1.9962,1.9934,2.0021,2.0036,2.0117,2.0145,2.0162,2.0177,2.0146,2.0268,2.028,2.029,2.0327,2.0342,2.0163,2.0162,2.0162,2.0162,0,1.9865,1.9913,1.996,1.9996,2.0024,2.0082,2.0077,2.0106,2.0093,2.0095,2.0162,2.0179,2.0218,2.0237,2.0226,2.0316,2.0299,2.0271,2.022,2.0311,2.0345,2.0359,2.0169,2.0167,2.0166,2.0165,0,0,2.0015,2.0043,2.006,2.0075,2.0102,2.0138,2.0193,2.0232,2.0256,2.0284,2.0328,2.0388,2.0361,2.0382,2.0372,2.041,2.0498,2.0376,2.0376,2.0396,2.0596,2.0615,2.0632,2.0482,2.0485,2.0487,2.0592,0,2.0124,2.022,2.021,2.03,2.0343,2.0312,2.036,2.038,2.0383,2.0419,2.0422,2.0464,2.0426,2.0438,2.0475,2.048,2.0537,2.0472,2.0521,2.0523,2.0513,2.0651,2.0672,2.0771,2.0606,2.0608,2.061,0,2.0265,2.0296,2.0391,2.0408,2.0426,2.0469,2.0502,2.0538,2.056,2.0559,2.0583,2.0565,2.0619,2.0569,2.0641,2.0597,2.0616,2.0621,2.0625,2.0627,2.0571,2.0654,2.0802,2.0816,2.0632,2.063,2.0628,0,2.0362,2.0428,2.0492,2.0506,2.0529,2.0559,2.057,2.0589,2.0613,2.0642,2.0656,2.0692,2.0711,2.0738,2.073,2.0695,2.0803,2.0753,2.0802,2.0802,2.0825,2.0823,2.0976,2.0842,2.0842,2.0841,2.0841,0,2.0484,2.0542,2.0535,2.0574,2.0638,2.0626,2.0689,2.0696,2.0713,2.0752,2.0728,2.0765,2.0754,2.079,2.0784,2.0843,2.0853,2.0852,2.0849,2.0853,2.0852,2.0864,2.0856,2.0845,2.0844,2.0844,2.0843,0,2.0602,2.06,2.0667,2.0683,2.0688,2.0734,2.0747,2.0783,2.0784,2.0834,2.0845,2.0846,2.0887,2.0882,2.0928,2.0924,2.0997,2.0987,2.0989,2.0986,2.1034,2.1029,2.1198,2.1218,2.1074,2.1075,2.1076,0,2.0679,2.0723,2.0743,2.0767,2.078,2.082,2.0843,2.0833,2.0858,2.0885,2.0917,2.0956,2.0986,2.1053,2.1057,2.1092,2.1081,2.1138,2.1086,2.1087,2.1079,2.1075,2.1078,2.1148,2.1149,2.1151,2.1152,0,2.0814,2.0811,2.0845,2.088,2.0908,2.0934,2.0958,2.0979,2.097,2.1,2.1041,2.1065,2.1111,2.1149,2.1181,2.1191,2.1169,2.1168,2.1181,2.1184,2.1182,2.1181,2.1014,2.1164,2.1163,2.1162,2.1161,2.1161,2.0912,2.0949,2.0968,2.1007,2.1024,2.1046,2.108,2.1085,2.1119,2.1156,2.1148,2.1194,2.1213,2.1254,2.1267,2.1302,2.1281,2.13,2.1304,2.1309,2.1313,2.1178,2.1308,2.1308,2.1307,2.1307,2.1307,0,2.1044,2.1055,2.1091,2.1124,2.1154,2.1132,2.1157,2.1183,2.1224,2.1244,2.1274,2.132,2.1356,2.1363,2.1397,2.1424,2.1415,2.1433,2.143,2.1432,2.1331,2.1315,2.144,2.144,2.144,2.144,2.144,2.144,2.1117,2.1176,2.1175,2.1242,2.1252,2.1297,2.1313,2.1332,2.1348,2.14,2.143,2.1435,2.1449,2.1483,2.1515,2.1516,2.1528,2.155,2.1547,2.1453,2.1439,2.1426,2.1411,2.1554,2.1554,2.1644,2.1645,2.1645]},{"header":{"parameterUnit":"m.s-1","parameterCategory":1,"la1":30.2991,"la2":30.254,"lo1":-89.0895,"lo2":-89.0444,"dy":0.0017,"dx":0.0017,"nx":28,"ny":28,"refTime":"2025-06-21T09:00:00:Z","depth":0,"parameterNumber":3,"parameterNumberName":"V-component_of_WINDS"},"data":[0,0,0,0,0,0,0,0,0,0,0,0,0,0,0,0,0,0,0,0,0,0,0,0,0,0,0,0,0,0,0,0,0,0,0,0,0,0,0,0,0,0,0,0,0,0,0,0,0,0,0,0,0,0,0,0,0,0,-0.2023,-0.2023,0,-0.203,-0.203,-0.203,-0.2051,-0.2051,-0.2052,-0.2052,-0.2057,-0.2057,-0.2056,0,0,0,0,0,0,0,0,0,0,0,0,0,-0.2028,-0.2028,-0.2023,-0.2024,-0.2024,-0.203,-0.203,-0.203,-0.2051,-0.2051,-0.2052,-0.2052,-0.2057,-0.2057,-0.2056,0,0,0,0,0,0,0,0,0,0,0,0,0,-0.203,-0.2028,-0.2023,-0.2035,-0.2036,-0.203,-0.203,-0.203,-0.2051,-0.2051,-0.2052,-0.2053,-0.2057,-0.2057,-0.2056,-0.204,0,0,-0.2055,-0.2055,0,0,0,0,0,0,0,0,-0.203,-0.2029,-0.2033,-0.2034,-0.2035,-0.204,-0.2034,-0.2033,-0.205,-0.2045,-0.2052,-0.2053,-0.2051,-0.2051,-0.2051,-0.204,-0.204,-0.2055,-0.2055,-0.2055,-0.2054,0,0,0,0,0,0,0,-0.2029,-0.2029,-0.2026,-0.2033,-0.2034,-0.2039,-0.204,-0.2034,-0.2044,-0.2045,-0.2047,-0.2047,-0.2052,-0.2051,-0.2051,-0.204,-0.2055,-0.2055,-0.2054,-0.2054,-0.2019,-0.2018,0,0,0,0,0,0,-0.2028,-0.2029,-0.2026,-0.2026,-0.2034,-0.2039,-0.204,-0.2038,-0.2044,-0.2046,-0.2047,-0.2048,-0.2051,-0.2051,-0.2051,-0.2033,-0.2055,-0.2054,-0.2054,-0.2019,-0.2019,-0.2018,0,0,0,0,0,0,-0.2028,-0.2027,-0.2026,-0.2028,-0.2028,-0.2038,-0.2036,-0.2038,-0.2037,-0.2045,-0.2047,-0.2045,-0.2052,-0.2052,-0.2043,-0.2034,-0.2054,-0.2054,-0.202,-0.2019,-0.2018,-0.1997,0,0,0,0,0,0,-0.2028,-0.2027,-0.2021,-0.2028,-0.2028,-0.2017,-0.2035,-0.2037,-0.2037,-0.2039,-0.2043,-0.2045,-0.2052,-0.2044,-0.2043,-0.2033,-0.2053,-0.2021,-0.202,-0.2018,-0.1998,-0.1995,-0.1992,0,0,0,0,0,-0.2028,-0.2014,-0.202,-0.202,-0.202,-0.2017,-0.2017,-0.2026,-0.2036,-0.203,-0.2035,-0.2045,-0.2035,-0.2043,-0.2042,-0.2032,-0.2022,-0.202,-0.2019,-0.2,-0.1996,-0.1992,0,0,0,0,0,0,-0.2004,-0.2015,-0.2022,-0.201,-0.2012,-0.202,-0.2012,-0.2022,-0.2021,-0.2023,-0.2034,-0.2035,-0.2025,-0.2028,-0.2036,-0.2018,-0.203,-0.2028,-0.2016,-0.2012,-0.2009,-0.2009,-0.2053,0,0,0,0,0,-0.1998,-0.1994,-0.2004,-0.1992,-0.1993,-0.2002,-0.2001,-0.2009,-0.2011,-0.2012,-0.2017,-0.2019,-0.2017,-0.2015,-0.2013,-0.1999,-0.2001,-0.1992,-0.1989,-0.1987,-0.1985,-0.198,-0.1976,-0.2013,-0.2013,-0.2013,0,0,-0.1984,-0.1989,-0.1986,-0.1987,-0.199,-0.1986,-0.2003,-0.1998,-0.1995,-0.2011,-0.2004,-0.2008,-0.2011,-0.2,-0.1995,-0.2002,-0.1976,-0.1985,-0.1983,-0.1983,-0.1978,-0.1974,-0.1971,-0.2012,-0.2012,-0.2012,0,0,-0.1957,-0.196,-0.1952,-0.1955,-0.1959,-0.1966,-0.1964,-0.1971,-0.1974,-0.1967,-0.198,-0.1977,-0.1972,-0.1975,-0.1975,-0.1952,-0.1961,-0.1951,-0.1935,-0.1929,-0.1927,-0.1924,-0.1916,-0.1913,-0.1949,-0.1949,-0.1949,0,-0.1939,-0.1934,-0.1946,-0.194,-0.1941,-0.1957,-0.1948,-0.1951,-0.1954,-0.1954,-0.1961,-0.1957,-0.196,-0.1951,-0.1946,-0.1945,-0.1944,-0.195,-0.1926,-0.1924,-0.1922,-0.1914,-0.1911,-0.1948,-0.1948,-0.1948,-0.1948,0,-0.1912,-0.1908,-0.1901,-0.1905,-0.1905,-0.1898,-0.1909,-0.1907,-0.1916,-0.1922,-0.1915,-0.192,-0.192,-0.1919,-0.1926,-0.1911,-0.1915,-0.1924,-0.1937,-0.1917,-0.191,-0.1908,-0.1946,-0.1946,-0.1947,-0.1947,0,0,-0.1868,-0.1881,-0.1878,-0.1881,-0.1888,-0.1886,-0.188,-0.1882,-0.188,-0.1883,-0.1879,-0.1876,-0.1885,-0.1885,-0.1893,-0.1888,-0.1871,-0.1898,-0.1899,-0.1894,-0.1856,-0.1849,-0.1846,-0.1877,-0.1877,-0.1876,-0.1856,0,-0.1843,-0.1835,-0.1846,-0.1835,-0.1833,-0.1849,-0.1844,-0.1848,-0.1855,-0.1854,-0.186,-0.1858,-0.187,-0.1871,-0.1867,-0.1874,-0.1863,-0.1875,-0.1874,-0.1874,-0.1873,-0.1842,-0.1834,-0.1815,-0.1853,-0.1853,-0.1853,0,-0.1812,-0.1815,-0.1804,-0.1814,-0.1813,-0.1809,-0.1812,-0.181,-0.1816,-0.1821,-0.1823,-0.1833,-0.1829,-0.1842,-0.1836,-0.1844,-0.1845,-0.1848,-0.1848,-0.1848,-0.1862,-0.1842,-0.1809,-0.1806,-0.1849,-0.1849,-0.1849,0,-0.1783,-0.1783,-0.1777,-0.1779,-0.179,-0.1787,-0.1791,-0.1798,-0.1798,-0.1801,-0.1802,-0.1803,-0.1804,-0.1806,-0.1816,-0.1825,-0.181,-0.1824,-0.1814,-0.1814,-0.181,-0.181,-0.1777,-0.181,-0.181,-0.181,-0.181,0,-0.1753,-0.1746,-0.1764,-0.176,-0.1753,-0.1767,-0.176,-0.1766,-0.1772,-0.177,-0.1783,-0.1781,-0.1796,-0.1795,-0.1803,-0.1798,-0.1798,-0.1803,-0.1805,-0.1801,-0.1801,-0.1802,-0.1803,-0.1809,-0.181,-0.181,-0.181,0,-0.1719,-0.173,-0.1725,-0.1737,-0.174,-0.1734,-0.1744,-0.1741,-0.1749,-0.1747,-0.1747,-0.1759,-0.176,-0.1771,-0.1773,-0.1779,-0.177,-0.1775,-0.1769,-0.177,-0.1761,-0.1762,-0.1727,-0.1723,-0.1758,-0.1758,-0.1758,0,-0.1699,-0.1694,-0.1706,-0.1706,-0.1711,-0.171,-0.1712,-0.1725,-0.1726,-0.1733,-0.173,-0.1732,-0.1734,-0.1734,-0.1743,-0.1745,-0.175,-0.1738,-0.1751,-0.1748,-0.1751,-0.1751,-0.1751,-0.1735,-0.1735,-0.1734,-0.1734,0,-0.1664,-0.1671,-0.1672,-0.1676,-0.1678,-0.1681,-0.1686,-0.1685,-0.17,-0.1701,-0.1702,-0.1704,-0.1707,-0.1709,-0.1713,-0.1718,-0.1729,-0.173,-0.1728,-0.1725,-0.1721,-0.1724,-0.1762,-0.1731,-0.1731,-0.1731,-0.1731,-0.1732,-0.1637,-0.1634,-0.1642,-0.1644,-0.1649,-0.1654,-0.1652,-0.1661,-0.1662,-0.1667,-0.1675,-0.1675,-0.1682,-0.169,-0.1694,-0.1694,-0.1701,-0.1697,-0.1697,-0.1696,-0.1694,-0.1722,-0.1695,-0.1695,-0.1695,-0.1695,-0.1695,0,-0.1603,-0.1609,-0.1611,-0.1618,-0.1619,-0.163,-0.1637,-0.1637,-0.1637,-0.1644,-0.1646,-0.1648,-0.1651,-0.1661,-0.1665,-0.1663,-0.1668,-0.1664,-0.1664,-0.1665,-0.1688,-0.169,-0.166,-0.166,-0.166,-0.166,-0.166,-0.166,-0.1585,-0.1581,-0.1589,-0.1588,-0.1595,-0.1596,-0.1599,-0.1603,-0.1609,-0.1611,-0.1613,-0.162,-0.1628,-0.1633,-0.1636,-0.1639,-0.164,-0.1634,-0.1638,-0.166,-0.1663,-0.1666,-0.1668,-0.1634,-0.1634,-0.1615,-0.1615,-0.1615]}]]